[[{"header":{"parameterUnit":"m.s-1","parameterCategory":1,"la1":30.2991,"la2":30.254,"lo1":-89.0895,"lo2":-89.0444,"dy":0.0017,"dx":0.0017,"nx":28,"ny":28,"refTime":"2024-10-13T21:00:00:Z","depth":0,"parameterNumber":2,"parameterNumberName":"U-component_of_WINDS"},"data":[0,0,0,0,0,0,0,0,0,0,0,0,0,0,0,0,0,0,0,0,0,0,0,0,0,0,0,0,0,0,0,0,0,0,0,0,0,0,0,0,0,0,0,0,0,0,0,0,0,0,0,0,0,0,0,0,0,0,-0.179,-0.1791,0,-0.1839,-0.184,-0.184,-0.1778,-0.1776,-0.1773,-0.1771,-0.1828,-0.1831,-0.1835,0,0,0,0,0,0,0,0,0,0,0,0,0,-0.1649,-0.1652,-0.179,-0.1791,-0.1791,-0.1839,-0.184,-0.184,-0.1778,-0.1776,-0.1773,-0.177,-0.1827,-0.1831,-0.1835,0,0,0,0,0,0,0,0,0,0,0,0,0,-0.1706,-0.1653,-0.179,-0.1766,-0.1764,-0.1839,-0.184,-0.184,-0.1779,-0.1776,-0.1772,-0.1769,-0.1825,-0.1831,-0.1836,-0.1938,0,0,-0.1853,-0.1855,0,0,0,0,0,0,0,0,-0.1703,-0.1711,-0.1769,-0.1768,-0.1766,-0.1799,-0.1811,-0.1874,-0.178,-0.1774,-0.1771,-0.1767,-0.1821,-0.1827,-0.1844,-0.1941,-0.1943,-0.1853,-0.1856,-0.1859,-0.186,0,0,0,0,0,0,0,-0.1699,-0.1709,-0.181,-0.177,-0.1768,-0.1755,-0.1759,-0.1822,-0.1816,-0.1774,-0.1769,-0.1776,-0.182,-0.1839,-0.1845,-0.1944,-0.1853,-0.1858,-0.1861,-0.1863,-0.213,-0.2133,0,0,0,0,0,0,-0.1697,-0.1706,-0.1808,-0.1811,-0.1725,-0.176,-0.1765,-0.1792,-0.1815,-0.1816,-0.1779,-0.1773,-0.1831,-0.1838,-0.1847,-0.197,-0.1859,-0.1864,-0.1867,-0.2126,-0.2131,-0.2135,0,0,0,0,0,0,-0.1694,-0.1706,-0.1806,-0.1757,-0.1769,-0.1766,-0.1797,-0.1795,-0.1813,-0.1819,-0.1818,-0.1799,-0.1829,-0.1839,-0.1916,-0.1971,-0.1866,-0.1871,-0.2122,-0.2127,-0.2133,-0.2216,0,0,0,0,0,0,-0.169,-0.1706,-0.1743,-0.1758,-0.1772,-0.1873,-0.18,-0.1798,-0.1822,-0.1815,-0.1837,-0.1838,-0.1827,-0.1908,-0.1921,-0.1976,-0.1876,-0.2117,-0.2124,-0.2131,-0.2208,-0.2224,-0.2237,0,0,0,0,0,-0.1685,-0.1766,-0.1745,-0.1758,-0.1818,-0.1876,-0.1884,-0.1868,-0.1827,-0.1866,-0.1869,-0.1837,-0.1962,-0.1917,-0.1931,-0.1988,-0.2113,-0.2122,-0.213,-0.2202,-0.2221,-0.2236,0,0,0,0,0,0,-0.176,-0.1767,-0.1745,-0.1832,-0.1854,-0.1866,-0.1914,-0.1888,-0.1923,-0.1915,-0.1895,-0.1901,-0.1984,-0.1993,-0.1942,-0.209,-0.2031,-0.2043,-0.2081,-0.2098,-0.2112,-0.211,-0.188,0,0,0,0,0,-0.1785,-0.183,-0.1835,-0.1912,-0.1924,-0.1917,-0.1942,-0.1927,-0.195,-0.1959,-0.1968,-0.1993,-0.2038,-0.2068,-0.211,-0.2208,-0.2214,-0.2255,-0.2269,-0.2281,-0.2293,-0.2348,-0.2367,-0.2163,-0.2163,-0.2163,0,0,-0.1841,-0.1851,-0.188,-0.1927,-0.1942,-0.1991,-0.1925,-0.198,-0.2017,-0.1968,-0.2041,-0.2049,-0.2076,-0.2164,-0.2204,-0.2175,-0.235,-0.2292,-0.2301,-0.2306,-0.2358,-0.2378,-0.2395,-0.2169,-0.2168,-0.2167,0,0,-0.1967,-0.1978,-0.2043,-0.2059,-0.2082,-0.2077,-0.2093,-0.2109,-0.2111,-0.2184,-0.2149,-0.2193,-0.227,-0.2291,-0.2312,-0.2446,-0.2419,-0.246,-0.2536,-0.259,-0.2606,-0.262,-0.2671,-0.2689,-0.2471,-0.2471,-0.2471,0,-0.2034,-0.2104,-0.2081,-0.2138,-0.2161,-0.2116,-0.2184,-0.2201,-0.2238,-0.2256,-0.2221,-0.2318,-0.2333,-0.2427,-0.2459,-0.2476,-0.2496,-0.2459,-0.2605,-0.2619,-0.2632,-0.268,-0.2699,-0.2476,-0.2475,-0.2475,-0.2474,0,-0.2186,-0.2235,-0.2286,-0.232,-0.2348,-0.241,-0.2399,-0.243,-0.2413,-0.2412,-0.2488,-0.2504,-0.2548,-0.2569,-0.2553,-0.2662,-0.2643,-0.2608,-0.2549,-0.2657,-0.2702,-0.272,-0.2483,-0.2481,-0.248,-0.2479,0,0,-0.2362,-0.2382,-0.2401,-0.2417,-0.2438,-0.2477,-0.2538,-0.2579,-0.2608,-0.2634,-0.2687,-0.2753,-0.272,-0.2744,-0.273,-0.2777,-0.2885,-0.2735,-0.2736,-0.2765,-0.3008,-0.3037,-0.3058,-0.2865,-0.2869,-0.2872,-0.3007,0,-0.249,-0.2594,-0.2575,-0.2677,-0.2723,-0.2682,-0.2735,-0.2755,-0.2756,-0.2798,-0.2799,-0.2847,-0.2799,-0.2813,-0.2857,-0.2862,-0.2934,-0.2852,-0.2918,-0.292,-0.2915,-0.3081,-0.3112,-0.3239,-0.3024,-0.3027,-0.3029,0,-0.2654,-0.2685,-0.279,-0.2805,-0.2824,-0.2872,-0.291,-0.2948,-0.2971,-0.2969,-0.2995,-0.2972,-0.3036,-0.2974,-0.3062,-0.3007,-0.3033,-0.3039,-0.3044,-0.3052,-0.2983,-0.3097,-0.3278,-0.3299,-0.3056,-0.3054,-0.3052,0,-0.2775,-0.2843,-0.2915,-0.2929,-0.2948,-0.2983,-0.2993,-0.3012,-0.3039,-0.3071,-0.3089,-0.3129,-0.3153,-0.3186,-0.3176,-0.3131,-0.3268,-0.3204,-0.327,-0.3271,-0.3303,-0.3302,-0.3495,-0.3315,-0.3315,-0.3314,-0.3314,0,-0.2922,-0.2989,-0.297,-0.3015,-0.309,-0.3068,-0.3143,-0.3148,-0.3165,-0.3213,-0.3179,-0.3224,-0.3207,-0.3252,-0.3244,-0.332,-0.333,-0.3332,-0.333,-0.3337,-0.3337,-0.3356,-0.3348,-0.3319,-0.3318,-0.3317,-0.3316,0,-0.3071,-0.3061,-0.3137,-0.3148,-0.3152,-0.3207,-0.3217,-0.3261,-0.3258,-0.3318,-0.3331,-0.3328,-0.338,-0.3372,-0.3429,-0.3424,-0.352,-0.3505,-0.3512,-0.351,-0.3577,-0.3572,-0.3791,-0.382,-0.3619,-0.3621,-0.3622,0,-0.3167,-0.3218,-0.3233,-0.3261,-0.3273,-0.3318,-0.3345,-0.3325,-0.3355,-0.3385,-0.3425,-0.3473,-0.351,-0.3594,-0.3599,-0.3643,-0.3632,-0.3705,-0.3638,-0.3644,-0.3636,-0.3635,-0.3641,-0.372,-0.3722,-0.3724,-0.3725,0,-0.3339,-0.3331,-0.3369,-0.3406,-0.3438,-0.3467,-0.3492,-0.3518,-0.3501,-0.3536,-0.3586,-0.3615,-0.3673,-0.3722,-0.3763,-0.3776,-0.375,-0.3746,-0.3764,-0.3773,-0.3776,-0.3778,-0.3551,-0.3742,-0.374,-0.3739,-0.3738,-0.3737,-0.3466,-0.351,-0.3528,-0.3572,-0.3588,-0.3613,-0.3654,-0.3656,-0.3697,-0.3742,-0.3728,-0.3787,-0.381,-0.3862,-0.3879,-0.3926,-0.39,-0.3925,-0.3932,-0.394,-0.3949,-0.3765,-0.3933,-0.3933,-0.3932,-0.3932,-0.3932,0,-0.3639,-0.3648,-0.3688,-0.3724,-0.376,-0.3727,-0.3754,-0.3787,-0.3838,-0.386,-0.3897,-0.3957,-0.4004,-0.4012,-0.4057,-0.4094,-0.4083,-0.4107,-0.4106,-0.4109,-0.3969,-0.395,-0.4115,-0.4115,-0.4115,-0.4115,-0.4115,-0.4115,-0.3733,-0.3805,-0.38,-0.3881,-0.389,-0.3945,-0.3963,-0.3987,-0.4005,-0.4072,-0.411,-0.4114,-0.4131,-0.4178,-0.4221,-0.4222,-0.4242,-0.4271,-0.4268,-0.4137,-0.4119,-0.4102,-0.4084,-0.4275,-0.4275,-0.4405,-0.4406,-0.4407]},{"header":{"parameterUnit":"m.s-1","parameterCategory":1,"la1":30.2991,"la2":30.254,"lo1":-89.0895,"lo2":-89.0444,"dy":0.0017,"dx":0.0017,"nx":28,"ny":28,"refTime":"2024-10-13T21:00:00:Z","depth":0,"parameterNumber":3,"parameterNumberName":"V-component_of_WINDS"},"data":[0,0,0,0,0,0,0,0,0,0,0,0,0,0,0,0,0,0,0,0,0,0,0,0,0,0,0,0,0,0,0,0,0,0,0,0,0,0,0,0,0,0,0,0,0,0,0,0,0,0,0,0,0,0,0,0,0,0,-1.1544,-1.1544,0,-1.1617,-1.1617,-1.1618,-1.1642,-1.1642,-1.1642,-1.1642,-1.1715,-1.1717,-1.1719,0,0,0,0,0,0,0,0,0,0,0,0,0,-1.1425,-1.1427,-1.1544,-1.1544,-1.1545,-1.1616,-1.1617,-1.1618,-1.1642,-1.1642,-1.1642,-1.1641,-1.1714,-1.1716,-1.1719,0,0,0,0,0,0,0,0,0,0,0,0,0,-1.1485,-1.1428,-1.1543,-1.1566,-1.1569,-1.1616,-1.1617,-1.1619,-1.1643,-1.1642,-1.1642,-1.1641,-1.1713,-1.1716,-1.172,-1.1749,0,0,-1.173,-1.1731,0,0,0,0,0,0,0,0,-1.1482,-1.1489,-1.1562,-1.1565,-1.1568,-1.162,-1.1602,-1.1662,-1.1643,-1.1614,-1.1642,-1.1641,-1.1683,-1.1689,-1.1704,-1.1753,-1.1756,-1.173,-1.1732,-1.1734,-1.1734,0,0,0,0,0,0,0,-1.1477,-1.1486,-1.1572,-1.1563,-1.1566,-1.1573,-1.1581,-1.1614,-1.1651,-1.1617,-1.1619,-1.1627,-1.1685,-1.17,-1.1706,-1.1757,-1.173,-1.1733,-1.1735,-1.1736,-1.1836,-1.1837,0,0,0,0,0,0,-1.147,-1.1483,-1.157,-1.1575,-1.1523,-1.1575,-1.1584,-1.1604,-1.165,-1.1657,-1.1628,-1.1628,-1.1695,-1.1702,-1.1708,-1.1748,-1.1733,-1.1737,-1.1739,-1.1836,-1.1837,-1.1837,0,0,0,0,0,0,-1.1467,-1.1477,-1.1567,-1.1529,-1.1541,-1.1578,-1.1599,-1.1605,-1.1621,-1.1658,-1.1665,-1.1637,-1.1695,-1.1704,-1.174,-1.1751,-1.1738,-1.1741,-1.1835,-1.1836,-1.1837,-1.1827,0,0,0,0,0,0,-1.1463,-1.1476,-1.1488,-1.1529,-1.1543,-1.1597,-1.16,-1.1607,-1.1627,-1.1628,-1.1669,-1.1675,-1.1695,-1.1735,-1.1743,-1.1755,-1.1744,-1.1834,-1.1836,-1.1837,-1.1826,-1.1827,-1.1828,0,0,0,0,0,-1.1459,-1.1481,-1.1488,-1.1498,-1.1558,-1.1598,-1.1606,-1.1629,-1.1628,-1.164,-1.1664,-1.1674,-1.1748,-1.1738,-1.1748,-1.1761,-1.1834,-1.1835,-1.1837,-1.1826,-1.1827,-1.1828,0,0,0,0,0,0,-1.1438,-1.1487,-1.1495,-1.1531,-1.156,-1.1602,-1.1618,-1.1629,-1.1659,-1.1659,-1.1686,-1.1695,-1.1729,-1.1749,-1.1736,-1.1794,-1.1791,-1.1795,-1.178,-1.1781,-1.1782,-1.1778,-1.1747,0,0,0,0,0,-1.1438,-1.1466,-1.1507,-1.1535,-1.1549,-1.1581,-1.1599,-1.1615,-1.1646,-1.1658,-1.1685,-1.1714,-1.1745,-1.1764,-1.1794,-1.1829,-1.1839,-1.1843,-1.1844,-1.1845,-1.1848,-1.187,-1.1873,-1.1842,-1.1842,-1.1842,0,0,-1.1437,-1.1467,-1.1483,-1.1531,-1.1556,-1.1585,-1.1591,-1.1621,-1.1643,-1.1662,-1.1699,-1.1719,-1.1754,-1.1791,-1.1808,-1.1808,-1.1859,-1.1847,-1.1847,-1.185,-1.1872,-1.1875,-1.1878,-1.1843,-1.1843,-1.1843,0,0,-1.1452,-1.1476,-1.1504,-1.1529,-1.1566,-1.1588,-1.1594,-1.1634,-1.1649,-1.1687,-1.1702,-1.1729,-1.178,-1.1805,-1.1824,-1.185,-1.1861,-1.1859,-1.1864,-1.1886,-1.1888,-1.189,-1.1902,-1.1905,-1.1861,-1.1861,-1.1861,0,-1.1446,-1.1491,-1.1516,-1.1546,-1.1567,-1.1587,-1.1615,-1.1638,-1.1683,-1.1697,-1.1697,-1.1763,-1.1787,-1.1831,-1.1838,-1.1852,-1.1861,-1.1855,-1.1886,-1.1888,-1.1891,-1.1902,-1.1906,-1.1861,-1.1861,-1.1861,-1.1861,0,-1.1483,-1.1514,-1.1531,-1.1576,-1.1599,-1.1628,-1.1658,-1.1678,-1.1692,-1.1714,-1.1752,-1.1783,-1.182,-1.1831,-1.1844,-1.1878,-1.1877,-1.188,-1.1879,-1.1893,-1.1904,-1.1908,-1.1861,-1.1861,-1.1861,-1.1861,0,0,-1.1485,-1.1545,-1.1551,-1.1573,-1.1617,-1.1641,-1.1671,-1.1709,-1.1727,-1.1757,-1.1784,-1.1828,-1.1833,-1.1854,-1.1871,-1.1889,-1.1911,-1.1891,-1.1893,-1.1896,-1.1952,-1.195,-1.1954,-1.1918,-1.1919,-1.1919,-1.1949,0,-1.1506,-1.1562,-1.1586,-1.1631,-1.1661,-1.1682,-1.1708,-1.1738,-1.176,-1.1788,-1.1811,-1.1843,-1.1845,-1.1859,-1.1879,-1.1904,-1.1923,-1.1902,-1.1944,-1.1945,-1.1936,-1.196,-1.1957,-1.1984,-1.1954,-1.1954,-1.1955,0,-1.1537,-1.157,-1.1619,-1.1662,-1.1675,-1.1698,-1.1737,-1.1763,-1.1798,-1.1813,-1.1838,-1.1854,-1.1888,-1.1883,-1.193,-1.1916,-1.1934,-1.195,-1.1951,-1.1957,-1.1952,-1.1968,-1.1993,-1.1998,-1.1961,-1.1961,-1.196,0,-1.1537,-1.1592,-1.1629,-1.1647,-1.1697,-1.1714,-1.1735,-1.177,-1.1792,-1.1825,-1.184,-1.1875,-1.1895,-1.1923,-1.1948,-1.1942,-1.1994,-1.1991,-1.2008,-1.2007,-1.2018,-1.2018,-1.2049,-1.2027,-1.2027,-1.2027,-1.2027,0,-1.1558,-1.1587,-1.163,-1.1653,-1.1687,-1.1715,-1.1747,-1.177,-1.1802,-1.183,-1.1849,-1.1875,-1.1906,-1.1936,-1.1956,-1.1994,-1.2002,-1.2015,-1.202,-1.2014,-1.2013,-1.2028,-1.2027,-1.2028,-1.2028,-1.2028,-1.2028,0,-1.1563,-1.1592,-1.1634,-1.1679,-1.1692,-1.1715,-1.1753,-1.1777,-1.18,-1.1835,-1.1845,-1.1881,-1.1918,-1.1946,-1.1992,-1.2006,-1.2046,-1.2051,-1.2035,-1.2038,-1.2054,-1.2053,-1.2097,-1.2105,-1.2077,-1.2077,-1.2077,0,-1.1575,-1.1598,-1.1647,-1.1668,-1.169,-1.1722,-1.1746,-1.1775,-1.1798,-1.1841,-1.186,-1.1898,-1.193,-1.1988,-1.2018,-1.2055,-1.2062,-1.2075,-1.2067,-1.2062,-1.2065,-1.2064,-1.2067,-1.2076,-1.2076,-1.2076,-1.2077,0,-1.1594,-1.1609,-1.1642,-1.1681,-1.1709,-1.174,-1.1773,-1.1788,-1.1823,-1.1849,-1.1888,-1.1913,-1.1962,-1.2001,-1.2041,-1.2063,-1.2076,-1.2079,-1.2085,-1.208,-1.2071,-1.2078,-1.204,-1.2078,-1.2078,-1.2077,-1.2077,-1.2077,-1.1604,-1.1627,-1.1666,-1.1703,-1.1731,-1.1761,-1.1786,-1.1813,-1.1846,-1.189,-1.1905,-1.1945,-1.1982,-1.2037,-1.206,-1.2093,-1.2093,-1.2101,-1.2104,-1.2106,-1.2107,-1.2064,-1.21,-1.21,-1.21,-1.21,-1.21,0,-1.1626,-1.1653,-1.1687,-1.1733,-1.1762,-1.1773,-1.181,-1.1834,-1.187,-1.1903,-1.1935,-1.1981,-1.2019,-1.2053,-1.2093,-1.2112,-1.2119,-1.2122,-1.2121,-1.2127,-1.2103,-1.2094,-1.2116,-1.2115,-1.2115,-1.2115,-1.2115,-1.2115,-1.1641,-1.1681,-1.1701,-1.1755,-1.1782,-1.1822,-1.1843,-1.1872,-1.1899,-1.195,-1.1982,-1.2004,-1.2039,-1.2082,-1.2117,-1.2126,-1.2141,-1.2142,-1.2153,-1.213,-1.2128,-1.2126,-1.2119,-1.2145,-1.2145,-1.2175,-1.2175,-1.2175]}]]